Time,TemperatureF,DewpointF,PressureIn,WindDirection,WindDirectionDegrees,WindSpeedMPH,WindSpeedGustMPH,Humidity,HourlyPrecipIn,Conditions,Clouds,dailyrainin,SoftwareType,DateUTC
2013-04-01 00:00:00,47.9,46.8,29.81,WSW,249,0.0,8.0,96,0.00,,,0.00,Wunderground v.1.15,2013-04-01 04:00:00,
2013-04-01 00:05:00,47.8,47.0,29.81,WSW,249,0.0,8.0,97,0.00,,,0.00,Wunderground v.1.15,2013-04-01 04:05:00,
2013-04-01 00:10:00,47.6,46.5,29.81,WSW,249,0.0,8.0,96,0.00,,,0.00,Wunderground v.1.15,2013-04-01 04:10:00,
2013-04-01 00:20:00,47.3,46.5,29.80,WSW,249,0.0,8.0,97,0.00,,,0.00,Wunderground v.1.15,2013-04-01 04:20:00,
2013-04-01 00:25:00,47.4,46.9,29.80,WSW,249,0.0,8.0,98,0.00,,,0.00,Wunderground v.1.15,2013-04-01 04:25:00,
2013-04-01 00:30:00,47.4,46.9,29.80,WSW,249,0.0,8.0,98,0.00,,,0.00,Wunderground v.1.15,2013-04-01 04:30:00,
2013-04-01 00:35:00,47.4,46.9,29.80,WSW,249,0.0,8.0,98,0.00,,,0.00,Wunderground v.1.15,2013-04-01 04:35:00,
2013-04-01 00:45:00,47.4,46.9,29.80,WSW,249,0.0,8.0,98,0.00,,,0.00,Wunderground v.1.15,2013-04-01 04:45:00,
2013-04-01 00:50:00,47.4,46.9,29.80,WSW,249,0.0,8.0,98,0.00,,,0.00,Wunderground v.1.15,2013-04-01 04:50:00,
2013-04-01 00:55:00,47.3,46.8,29.80,WSW,249,0.0,8.0,98,0.00,,,0.00,Wunderground v.1.15,2013-04-01 04:55:00,
2013-04-01 01:05:00,46.9,46.4,29.80,WSW,249,0.0,8.0,98,0.00,,,0.00,Wunderground v.1.15,2013-04-01 05:05:00,
2013-04-01 01:10:00,46.7,46.2,29.80,WSW,249,0.0,8.0,98,0.00,,,0.00,Wunderground v.1.15,2013-04-01 05:10:00,
2013-04-01 01:15:00,46.5,46.0,29.80,WSW,249,0.0,8.0,98,0.00,,,0.00,Wunderground v.1.15,2013-04-01 05:15:00,
2013-04-01 01:20:00,46.3,45.8,29.80,WSW,249,0.0,8.0,98,0.00,,,0.00,Wunderground v.1.15,2013-04-01 05:20:00,
2013-04-01 01:25:00,46.3,45.8,29.80,WSW,249,0.0,8.0,98,0.00,,,0.00,Wunderground v.1.15,2013-04-01 05:25:00,
2013-04-01 01:35:00,46.4,45.9,29.80,WSW,249,0.0,8.0,98,0.00,,,0.00,Wunderground v.1.15,2013-04-01 05:35:00,
2013-04-01 01:40:00,46.3,45.8,29.80,WSW,249,0.0,8.0,98,0.00,,,0.00,Wunderground v.1.15,2013-04-01 05:40:00,
2013-04-01 01:45:00,46.1,45.6,29.80,WSW,249,0.0,8.0,98,0.00,,,0.00,Wunderground v.1.15,2013-04-01 05:45:00,
2013-04-01 01:50:00,46.0,45.5,29.80,WSW,249,0.0,8.0,98,0.00,,,0.00,Wunderground v.1.15,2013-04-01 05:50:00,
2013-04-01 02:00:00,45.4,44.9,29.80,WSW,237,2.0,8.0,98,0.00,,,0.00,Wunderground v.1.15,2013-04-01 06:00:00,
2013-04-01 02:05:00,45.6,45.3,29.79,WSW,237,2.0,8.0,99,0.00,,,0.00,Wunderground v.1.15,2013-04-01 06:05:00,
2013-04-01 02:10:00,45.6,45.3,29.79,WSW,237,0.0,8.0,99,0.00,,,0.00,Wunderground v.1.15,2013-04-01 06:10:00,
2013-04-01 02:15:00,45.5,45.2,29.79,WSW,237,0.0,8.0,99,0.00,,,0.00,Wunderground v.1.15,2013-04-01 06:15:00,
2013-04-01 02:20:00,45.4,44.9,29.79,WSW,237,0.0,8.0,98,0.00,,,0.00,Wunderground v.1.15,2013-04-01 06:20:00,
2013-04-01 02:30:00,45.1,44.8,29.79,WSW,237,0.0,8.0,99,0.00,,,0.00,Wunderground v.1.15,2013-04-01 06:30:00,
2013-04-01 02:35:00,45.0,44.7,29.79,WSW,237,0.0,8.0,99,0.00,,,0.00,Wunderground v.1.15,2013-04-01 06:35:00,
2013-04-01 02:40:00,45.1,44.8,29.79,WSW,237,0.0,8.0,99,0.00,,,0.00,Wunderground v.1.15,2013-04-01 06:40:00,
2013-04-01 02:50:00,45.0,44.7,29.79,WSW,237,0.0,8.0,99,0.00,,,0.00,Wunderground v.1.15,2013-04-01 06:50:00,
2013-04-01 02:55:00,44.9,44.6,29.79,WSW,237,0.0,8.0,99,0.00,,,0.00,Wunderground v.1.15,2013-04-01 06:55:00,
2013-04-01 03:00:00,44.7,44.4,29.79,WSW,237,0.0,8.0,99,0.00,,,0.00,Wunderground v.1.15,2013-04-01 07:00:00,
2013-04-01 03:05:00,44.7,44.4,29.79,WSW,237,0.0,8.0,99,0.00,,,0.00,Wunderground v.1.15,2013-04-01 07:05:00,
2013-04-01 03:10:00,45.0,44.7,29.79,WSW,237,0.0,8.0,99,0.00,,,0.00,Wunderground v.1.15,2013-04-01 07:10:00,
2013-04-01 03:20:00,44.7,44.4,29.79,WSW,237,0.0,8.0,99,0.00,,,0.00,Wunderground v.1.15,2013-04-01 07:20:00,
2013-04-01 03:25:00,44.5,44.2,29.79,WSW,237,0.0,8.0,99,0.00,,,0.00,Wunderground v.1.15,2013-04-01 07:25:00,
2013-04-01 03:30:00,44.3,44.0,29.79,WSW,237,0.0,8.0,99,0.00,,,0.00,Wunderground v.1.15,2013-04-01 07:30:00,
2013-04-01 03:35:00,44.1,43.8,29.79,WSW,237,0.0,8.0,99,0.00,,,0.00,Wunderground v.1.15,2013-04-01 07:35:00,
2013-04-01 03:40:00,44.0,43.7,29.79,WSW,237,0.0,8.0,99,0.00,,,0.00,Wunderground v.1.15,2013-04-01 07:40:00,
2013-04-01 03:50:00,43.6,43.3,29.79,WSW,237,0.0,8.0,99,0.00,,,0.00,Wunderground v.1.15,2013-04-01 07:50:00,
2013-04-01 03:55:00,43.1,42.6,29.79,WSW,237,0.0,8.0,98,0.00,,,0.00,Wunderground v.1.15,2013-04-01 07:55:00,
2013-04-01 04:00:00,43.3,43.0,29.79,WSW,237,0.0,8.0,99,0.00,,,0.00,Wunderground v.1.15,2013-04-01 08:00:00,
2013-04-01 04:05:00,43.6,43.6,29.79,WSW,237,0.0,8.0,100,0.00,,,0.00,Wunderground v.1.15,2013-04-01 08:05:00,
2013-04-01 04:10:00,43.4,43.1,29.79,WSW,237,0.0,8.0,99,0.00,,,0.00,Wunderground v.1.15,2013-04-01 08:10:00,
2013-04-01 04:20:00,42.5,42.2,29.79,WSW,237,0.0,8.0,99,0.00,,,0.00,Wunderground v.1.15,2013-04-01 08:20:00,
2013-04-01 04:25:00,42.5,42.2,29.79,WSW,237,0.0,8.0,99,0.00,,,0.00,Wunderground v.1.15,2013-04-01 08:25:00,
2013-04-01 04:30:00,42.4,42.1,29.79,WSW,237,0.0,8.0,99,0.00,,,0.00,Wunderground v.1.15,2013-04-01 08:30:00,
2013-04-01 04:35:00,42.3,42.0,29.79,WSW,237,0.0,8.0,99,0.00,,,0.00,Wunderground v.1.15,2013-04-01 08:35:00,
2013-04-01 04:45:00,42.0,41.7,29.79,WSW,237,0.0,8.0,99,0.00,,,0.00,Wunderground v.1.15,2013-04-01 08:45:00,
2013-04-01 04:50:00,42.1,41.8,29.79,WSW,237,0.0,8.0,99,0.00,,,0.00,Wunderground v.1.15,2013-04-01 08:50:00,
2013-04-01 04:55:00,42.3,42.0,29.79,WSW,237,0.0,8.0,99,0.00,,,0.00,Wunderground v.1.15,2013-04-01 08:55:00,
2013-04-01 05:00:00,42.4,42.4,29.79,WSW,237,0.0,8.0,100,0.00,,,0.00,Wunderground v.1.15,2013-04-01 09:00:00,
2013-04-01 05:10:00,42.2,41.9,29.79,WSW,237,0.0,8.0,99,0.00,,,0.00,Wunderground v.1.15,2013-04-01 09:10:00,
2013-04-01 05:15:00,42.1,41.8,29.79,WSW,237,0.0,8.0,99,0.00,,,0.00,Wunderground v.1.15,2013-04-01 09:15:00,
2013-04-01 05:20:00,42.5,42.5,29.79,WSW,237,0.0,8.0,100,0.00,,,0.00,Wunderground v.1.15,2013-04-01 09:20:00,
2013-04-01 05:25:00,42.7,42.7,29.79,WSW,237,0.0,8.0,100,0.00,,,0.00,Wunderground v.1.15,2013-04-01 09:25:00,
2013-04-01 05:30:00,42.8,42.8,29.79,WSW,237,0.0,8.0,100,0.00,,,0.00,Wunderground v.1.15,2013-04-01 09:30:00,
2013-04-01 05:40:00,42.9,42.9,29.78,WSW,237,0.0,8.0,100,0.00,,,0.00,Wunderground v.1.15,2013-04-01 09:40:00,
2013-04-01 05:45:00,43.3,43.3,29.78,WSW,237,0.0,8.0,100,0.00,,,0.00,Wunderground v.1.15,2013-04-01 09:45:00,
2013-04-01 05:55:00,43.5,43.5,29.78,WSW,237,0.0,8.0,100,0.00,,,0.00,Wunderground v.1.15,2013-04-01 09:55:00,
2013-04-01 06:00:00,43.4,43.4,29.78,WSW,237,0.0,8.0,100,0.00,,,0.00,Wunderground v.1.15,2013-04-01 10:00:00,
2013-04-01 06:05:00,43.2,43.2,29.78,WSW,237,0.0,8.0,100,0.00,,,0.00,Wunderground v.1.15,2013-04-01 10:05:00,
2013-04-01 06:10:00,43.0,43.0,29.77,WSW,237,0.0,8.0,100,0.00,,,0.00,Wunderground v.1.15,2013-04-01 10:10:00,
2013-04-01 06:15:00,43.0,43.0,29.78,WSW,237,0.0,8.0,100,0.00,,,0.00,Wunderground v.1.15,2013-04-01 10:15:00,
2013-04-01 06:25:00,43.0,43.0,29.78,WSW,237,0.0,8.0,100,0.00,,,0.00,Wunderground v.1.15,2013-04-01 10:25:00,
2013-04-01 06:30:00,42.3,42.0,29.78,WSW,237,0.0,8.0,99,0.00,,,0.00,Wunderground v.1.15,2013-04-01 10:30:00,
2013-04-01 06:35:00,42.2,41.9,29.78,WSW,237,0.0,8.0,99,0.00,,,0.00,Wunderground v.1.15,2013-04-01 10:35:00,
2013-04-01 06:40:00,42.6,42.6,29.78,WSW,237,0.0,8.0,100,0.00,,,0.00,Wunderground v.1.15,2013-04-01 10:40:00,
2013-04-01 06:50:00,42.9,42.9,29.79,WSW,237,0.0,8.0,100,0.00,,,0.00,Wunderground v.1.15,2013-04-01 10:50:00,
2013-04-01 06:55:00,43.0,43.0,29.79,WSW,237,0.0,8.0,100,0.00,,,0.00,Wunderground v.1.15,2013-04-01 10:55:00,
2013-04-01 07:00:00,43.2,43.2,29.79,WSW,237,0.0,8.0,100,0.00,,,0.00,Wunderground v.1.15,2013-04-01 11:00:00,
2013-04-01 07:10:00,43.4,43.4,29.79,WSW,237,0.0,8.0,100,0.00,,,0.00,Wunderground v.1.15,2013-04-01 11:10:00,
2013-04-01 07:15:00,43.1,43.1,29.79,WSW,237,0.0,8.0,100,0.00,,,0.00,Wunderground v.1.15,2013-04-01 11:15:00,
2013-04-01 07:20:00,43.1,43.1,29.79,WSW,237,0.0,8.0,100,0.00,,,0.00,Wunderground v.1.15,2013-04-01 11:20:00,
2013-04-01 07:25:00,43.1,43.1,29.79,WSW,237,0.0,8.0,100,0.00,,,0.00,Wunderground v.1.15,2013-04-01 11:25:00,
2013-04-01 07:30:00,43.0,43.0,29.79,WSW,237,0.0,8.0,100,0.00,,,0.00,Wunderground v.1.15,2013-04-01 11:30:00,
2013-04-01 07:40:00,43.3,43.3,29.79,WSW,237,0.0,8.0,100,0.00,,,0.00,Wunderground v.1.15,2013-04-01 11:40:00,
2013-04-01 07:45:00,43.5,43.5,29.79,WSW,237,0.0,8.0,100,0.00,,,0.00,Wunderground v.1.15,2013-04-01 11:45:00,
2013-04-01 07:50:00,43.8,43.8,29.79,SW,232,1.0,8.0,100,0.00,,,0.00,Wunderground v.1.15,2013-04-01 11:50:00,
2013-04-01 07:55:00,44.4,44.4,29.79,SW,225,2.0,10.0,100,0.00,,,0.00,Wunderground v.1.15,2013-04-01 11:55:00,
2013-04-01 08:05:00,46.0,45.7,29.79,SW,223,3.0,8.0,99,0.00,,,0.00,Wunderground v.1.15,2013-04-01 12:05:00,
2013-04-01 08:10:00,46.9,45.3,29.79,SW,225,3.0,8.0,94,0.00,,,0.00,Wunderground v.1.15,2013-04-01 12:10:00,
2013-04-01 08:15:00,48.1,44.4,29.80,WSW,238,5.0,8.0,87,0.00,,,0.00,Wunderground v.1.15,2013-04-01 12:15:00,
2013-04-01 08:20:00,49.1,44.5,29.80,West,261,5.0,8.0,84,0.00,,,0.00,Wunderground v.1.15,2013-04-01 12:20:00,
2013-04-01 08:25:00,49.7,44.4,29.80,SW,229,5.0,8.0,82,0.00,,,0.00,Wunderground v.1.15,2013-04-01 12:25:00,
2013-04-01 08:35:00,50.6,44.0,29.80,WSW,241,5.0,5.0,78,0.00,,,0.00,Wunderground v.1.15,2013-04-01 12:35:00,
2013-04-01 08:40:00,51.0,44.0,29.80,WSW,256,6.0,6.0,77,0.00,,,0.00,Wunderground v.1.15,2013-04-01 12:40:00,
2013-04-01 08:45:00,51.4,43.7,29.79,WSW,257,5.0,8.0,75,0.00,,,0.00,Wunderground v.1.15,2013-04-01 12:45:00,
2013-04-01 08:55:00,52.3,44.6,29.80,WSW,255,4.0,8.0,75,0.00,,,0.00,Wunderground v.1.15,2013-04-01 12:55:00,
2013-04-01 09:00:00,52.7,44.3,29.79,WSW,252,5.0,5.0,73,0.00,,,0.00,Wunderground v.1.15,2013-04-01 13:00:00,
2013-04-01 09:05:00,53.3,44.9,29.79,SSW,194,5.0,8.0,73,0.00,,,0.00,Wunderground v.1.15,2013-04-01 13:05:00,
2013-04-01 09:10:00,53.9,44.3,29.79,WSW,253,5.0,8.0,70,0.00,,,0.00,Wunderground v.1.15,2013-04-01 13:10:00,
2013-04-01 09:15:00,54.4,44.4,29.79,SW,230,5.0,8.0,69,0.00,,,0.00,Wunderground v.1.15,2013-04-01 13:15:00,
2013-04-01 09:25:00,55.4,44.2,29.79,SW,232,5.0,8.0,66,0.00,,,0.01,Wunderground v.1.15,2013-04-01 13:25:00,
2013-04-01 09:30:00,55.4,45.0,29.79,WSW,242,7.0,8.0,68,0.00,,,0.01,Wunderground v.1.15,2013-04-01 13:30:00,
2013-04-01 09:35:00,55.7,44.1,29.79,SSW,196,7.0,8.0,65,0.00,,,0.01,Wunderground v.1.15,2013-04-01 13:35:00,
2013-04-01 09:40:00,56.0,44.4,29.79,SSW,199,6.0,6.0,65,0.00,,,0.01,Wunderground v.1.15,2013-04-01 13:40:00,
2013-04-01 09:45:00,56.3,45.1,29.79,SW,233,6.0,8.0,66,0.00,,,0.01,Wunderground v.1.15,2013-04-01 13:45:00,
2013-04-01 09:55:00,57.3,44.8,29.79,WSW,257,3.0,6.0,63,0.00,,,0.01,Wunderground v.1.15,2013-04-01 13:55:00,
2013-04-01 10:00:00,57.8,45.3,29.78,WSW,244,4.0,4.0,63,0.00,,,0.01,Wunderground v.1.15,2013-04-01 14:00:00,
2013-04-01 10:05:00,58.2,44.8,29.78,SW,225,4.0,5.0,61,0.00,,,0.01,Wunderground v.1.15,2013-04-01 14:05:00,
2013-04-01 10:10:00,58.3,44.5,29.78,West,279,5.0,5.0,60,0.00,,,0.01,Wunderground v.1.15,2013-04-01 14:10:00,
2013-04-01 10:20:00,58.5,44.2,29.78,SW,235,6.0,6.0,59,0.00,,,0.01,Wunderground v.1.15,2013-04-01 14:20:00,
2013-04-01 10:25:00,58.8,44.0,29.78,West,268,7.0,10.0,58,0.00,,,0.01,Wunderground v.1.15,2013-04-01 14:25:00,
2013-04-01 10:30:00,59.0,45.1,29.78,SSW,200,7.0,8.0,60,0.00,,,0.01,Wunderground v.1.15,2013-04-01 14:30:00,
2013-04-01 10:35:00,59.8,45.0,29.77,WSW,240,5.0,8.0,58,0.00,,,0.01,Wunderground v.1.15,2013-04-01 14:35:00,
2013-04-01 10:45:00,60.4,44.6,29.77,SW,236,5.0,8.0,56,0.00,,,0.01,Wunderground v.1.15,2013-04-01 14:45:00,
2013-04-01 10:50:00,60.7,44.9,29.77,WSW,249,5.0,8.0,56,0.00,,,0.01,Wunderground v.1.15,2013-04-01 14:50:00,
2013-04-01 10:55:00,61.4,45.1,29.77,SW,224,5.0,10.0,55,0.00,,,0.01,Wunderground v.1.15,2013-04-01 14:55:00,
2013-04-01 11:00:00,61.8,45.5,29.77,WSW,258,4.0,8.0,55,0.00,,,0.01,Wunderground v.1.15,2013-04-01 15:00:00,
2013-04-01 11:05:00,61.8,44.5,29.77,SW,226,5.0,8.0,53,0.00,,,0.01,Wunderground v.1.15,2013-04-01 15:05:00,
2013-04-01 11:15:00,62.3,44.9,29.77,WSW,241,6.0,15.0,53,0.00,,,0.01,Wunderground v.1.15,2013-04-01 15:15:00,
2013-04-01 11:20:00,62.6,44.7,29.77,SSE,163,7.0,7.0,52,0.00,,,0.01,Wunderground v.1.15,2013-04-01 15:20:00,
2013-04-01 11:25:00,62.7,44.8,29.77,West,260,6.0,8.0,52,0.00,,,0.01,Wunderground v.1.15,2013-04-01 15:25:00,
2013-04-01 11:30:00,62.6,44.2,29.77,NW,306,6.0,6.0,51,0.00,,,0.01,Wunderground v.1.15,2013-04-01 15:30:00,
2013-04-01 11:35:00,62.9,44.5,29.76,NW,311,7.0,11.0,51,0.00,,,0.01,Wunderground v.1.15,2013-04-01 15:35:00,
2013-04-01 11:45:00,62.8,44.4,29.77,WNW,301,7.0,13.0,51,0.00,,,0.01,Wunderground v.1.15,2013-04-01 15:45:00,
2013-04-01 11:50:00,62.8,44.4,29.76,WSW,254,8.0,8.0,51,0.00,,,0.01,Wunderground v.1.15,2013-04-01 15:50:00,
2013-04-01 11:55:00,63.2,44.8,29.76,NW,310,9.0,10.0,51,0.00,,,0.01,Wunderground v.1.15,2013-04-01 15:55:00,
2013-04-01 12:00:00,63.2,44.8,29.76,WNW,287,7.0,11.0,51,0.00,,,0.01,Wunderground v.1.15,2013-04-01 16:00:00,
2013-04-01 12:05:00,63.0,44.1,29.77,West,261,5.0,11.0,50,0.00,,,0.01,Wunderground v.1.15,2013-04-01 16:05:00,
2013-04-01 12:15:00,63.2,44.8,29.76,WNW,303,5.0,8.0,51,0.00,,,0.01,Wunderground v.1.15,2013-04-01 16:15:00,
2013-04-01 12:20:00,63.5,44.5,29.76,NW,309,7.0,8.0,50,0.00,,,0.01,Wunderground v.1.15,2013-04-01 16:20:00,
2013-04-01 12:25:00,63.0,44.1,29.76,West,277,8.0,8.0,50,0.00,,,0.01,Wunderground v.1.15,2013-04-01 16:25:00,
2013-04-01 12:30:00,62.9,44.5,29.76,West,277,8.0,8.0,51,0.00,,,0.01,Wunderground v.1.15,2013-04-01 16:30:00,
2013-04-01 12:40:00,63.7,44.7,29.75,WSW,250,8.0,8.0,50,0.00,,,0.01,Wunderground v.1.15,2013-04-01 16:40:00,
2013-04-01 12:45:00,64.5,44.9,29.75,WSW,254,7.0,10.0,49,0.00,,,0.01,Wunderground v.1.15,2013-04-01 16:45:00,
2013-04-01 12:50:00,64.4,44.8,29.75,WSW,253,8.0,10.0,49,0.00,,,0.01,Wunderground v.1.15,2013-04-01 16:50:00,
2013-04-01 13:00:00,64.8,44.6,29.75,West,273,7.0,7.0,48,0.00,,,0.01,Wunderground v.1.15,2013-04-01 17:00:00,
2013-04-01 13:05:00,65.0,43.7,29.74,NNW,347,8.0,10.0,46,0.00,,,0.01,Wunderground v.1.15,2013-04-01 17:05:00,
2013-04-01 13:10:00,65.7,44.3,29.74,SW,217,8.0,10.0,46,0.00,,,0.01,Wunderground v.1.15,2013-04-01 17:10:00,
2013-04-01 13:15:00,66.6,43.4,29.74,SW,216,8.0,11.0,43,0.00,,,0.01,Wunderground v.1.15,2013-04-01 17:15:00,
2013-04-01 13:20:00,65.8,41.4,29.75,West,267,11.0,15.0,41,0.00,,,0.01,Wunderground v.1.15,2013-04-01 17:20:00,
2013-04-01 13:30:00,63.6,40.7,29.74,NNW,331,13.0,13.0,43,0.00,,,0.01,Wunderground v.1.15,2013-04-01 17:30:00,
2013-04-01 13:35:00,63.3,41.0,29.75,NW,304,13.0,13.0,44,0.00,,,0.01,Wunderground v.1.15,2013-04-01 17:35:00,
2013-04-01 13:40:00,63.3,42.7,29.75,West,279,9.0,11.0,47,0.00,,,0.01,Wunderground v.1.15,2013-04-01 17:40:00,
2013-04-01 13:45:00,63.3,43.8,29.75,WNW,303,5.0,11.0,49,0.00,,,0.01,Wunderground v.1.15,2013-04-01 17:45:00,
2013-04-01 13:55:00,62.5,43.1,29.75,West,263,8.0,13.0,49,0.00,,,0.01,Wunderground v.1.15,2013-04-01 17:55:00,
2013-04-01 14:00:00,62.0,43.7,29.75,WSW,240,6.0,6.0,51,0.00,,,0.01,Wunderground v.1.15,2013-04-01 18:00:00,
2013-04-01 14:05:00,61.7,43.4,29.75,West,261,5.0,9.0,51,0.00,,,0.01,Wunderground v.1.15,2013-04-01 18:05:00,
2013-04-01 14:10:00,61.3,43.0,29.75,NNW,331,6.0,6.0,51,0.00,,,0.01,Wunderground v.1.15,2013-04-01 18:10:00,
2013-04-01 14:20:00,60.3,42.6,29.75,West,273,8.0,8.0,52,0.00,,,0.01,Wunderground v.1.15,2013-04-01 18:20:00,
2013-04-01 14:25:00,60.4,42.7,29.75,WNW,302,7.0,8.0,52,0.00,,,0.01,Wunderground v.1.15,2013-04-01 18:25:00,
2013-04-01 14:30:00,60.3,43.1,29.76,NW,312,7.0,7.0,53,0.00,,,0.01,Wunderground v.1.15,2013-04-01 18:30:00,
2013-04-01 14:35:00,60.0,42.3,29.76,WNW,300,6.0,11.0,52,0.00,,,0.01,Wunderground v.1.15,2013-04-01 18:35:00,
2013-04-01 14:40:00,59.5,42.8,29.77,NNW,348,5.0,9.0,54,0.00,,,0.01,Wunderground v.1.15,2013-04-01 18:40:00,
2013-04-01 14:50:00,57.3,42.6,29.78,NW,317,9.0,17.0,58,0.00,,,0.01,Wunderground v.1.15,2013-04-01 18:50:00,
2013-04-01 14:55:00,56.4,43.1,29.78,NNW,337,9.0,17.0,61,0.00,,,0.01,Wunderground v.1.15,2013-04-01 18:55:00,
2013-04-01 15:00:00,56.6,43.3,29.78,West,272,7.0,7.0,61,0.00,,,0.01,Wunderground v.1.15,2013-04-01 19:00:00,
2013-04-01 15:05:00,56.7,43.4,29.78,North,355,6.0,8.0,61,0.00,,,0.01,Wunderground v.1.15,2013-04-01 19:05:00,
2013-04-01 15:15:00,56.9,44.0,29.79,NW,313,5.0,8.0,62,0.00,,,0.01,Wunderground v.1.15,2013-04-01 19:15:00,
2013-04-01 15:20:00,56.3,43.9,29.79,NW,323,8.0,8.0,63,0.00,,,0.01,Wunderground v.1.15,2013-04-01 19:20:00,
2013-04-01 15:25:00,56.0,44.0,29.79,NNW,334,10.0,10.0,64,0.00,,,0.01,Wunderground v.1.15,2013-04-01 19:25:00,
2013-04-01 15:30:00,56.0,43.2,29.79,NW,322,8.0,15.0,62,0.00,,,0.01,Wunderground v.1.15,2013-04-01 19:30:00,
2013-04-01 15:35:00,56.1,42.8,29.78,North,360,9.0,15.0,61,0.00,,,0.01,Wunderground v.1.15,2013-04-01 19:35:00,
2013-04-01 15:45:00,56.9,42.3,29.79,NW,310,7.0,11.0,58,0.00,,,0.01,Wunderground v.1.15,2013-04-01 19:45:00,
2013-04-01 15:50:00,56.5,41.0,29.79,NNW,327,10.0,10.0,56,0.00,,,0.01,Wunderground v.1.15,2013-04-01 19:50:00,
2013-04-01 15:55:00,56.2,40.7,29.79,NNW,334,10.0,10.0,56,0.00,,,0.01,Wunderground v.1.15,2013-04-01 19:55:00,
2013-04-01 16:05:00,55.0,40.0,29.80,West,263,10.0,10.0,57,0.00,,,0.01,Wunderground v.1.15,2013-04-01 20:05:00,
2013-04-01 16:10:00,54.5,39.1,29.80,WNW,300,10.0,10.0,56,0.00,,,0.01,Wunderground v.1.15,2013-04-01 20:10:00,
2013-04-01 16:15:00,54.2,39.3,29.80,NW,325,9.0,10.0,57,0.00,,,0.01,Wunderground v.1.15,2013-04-01 20:15:00,
2013-04-01 16:20:00,54.3,39.4,29.81,North,360,7.0,12.0,57,0.00,,,0.01,Wunderground v.1.15,2013-04-01 20:20:00,
2013-04-01 16:30:00,53.6,38.7,29.81,NNW,338,8.0,16.0,57,0.00,,,0.01,Wunderground v.1.15,2013-04-01 20:30:00,
2013-04-01 16:35:00,53.1,38.3,29.82,WNW,285,12.0,16.0,57,0.00,,,0.01,Wunderground v.1.15,2013-04-01 20:35:00,
2013-04-01 16:40:00,52.7,37.9,29.82,WNW,300,11.0,14.0,57,0.00,,,0.01,Wunderground v.1.15,2013-04-01 20:40:00,
2013-04-01 16:45:00,52.3,37.5,29.82,WNW,296,10.0,21.0,57,0.00,,,0.01,Wunderground v.1.15,2013-04-01 20:45:00,
2013-04-01 16:50:00,52.7,38.3,29.82,NW,325,10.0,15.0,58,0.00,,,0.01,Wunderground v.1.15,2013-04-01 20:50:00,
2013-04-01 17:00:00,52.9,36.7,29.83,West,262,12.0,13.0,54,0.00,,,0.01,Wunderground v.1.15,2013-04-01 21:00:00,
2013-04-01 17:05:00,52.8,36.6,29.83,NW,323,10.0,13.0,54,0.00,,,0.01,Wunderground v.1.15,2013-04-01 21:05:00,
2013-04-01 17:10:00,52.8,36.1,29.83,WNW,300,12.0,17.0,53,0.00,,,0.01,Wunderground v.1.15,2013-04-01 21:10:00,
2013-04-01 17:20:00,52.5,35.8,29.83,NW,304,10.0,10.0,53,0.00,,,0.01,Wunderground v.1.15,2013-04-01 21:20:00,
2013-04-01 17:25:00,52.5,36.3,29.83,NW,308,7.0,10.0,54,0.00,,,0.01,Wunderground v.1.15,2013-04-01 21:25:00,
2013-04-01 17:30:00,52.9,36.2,29.84,WNW,300,7.0,11.0,53,0.00,,,0.01,Wunderground v.1.15,2013-04-01 21:30:00,
2013-04-01 17:35:00,52.9,35.7,29.84,NNW,329,10.0,18.0,52,0.00,,,0.01,Wunderground v.1.15,2013-04-01 21:35:00,
2013-04-01 17:40:00,52.3,34.7,29.84,NW,305,11.0,11.0,51,0.00,,,0.01,Wunderground v.1.15,2013-04-01 21:40:00,
2013-04-01 17:50:00,52.6,34.5,29.84,NE,43,7.0,7.0,50,0.00,,,0.01,Wunderground v.1.15,2013-04-01 21:50:00,
2013-04-01 17:55:00,52.4,33.8,29.85,NNW,338,9.0,9.0,49,0.00,,,0.01,Wunderground v.1.15,2013-04-01 21:55:00,
2013-04-01 18:00:00,52.3,33.7,29.85,WNW,299,9.0,21.0,49,0.00,,,0.01,Wunderground v.1.15,2013-04-01 22:00:00,
2013-04-01 18:05:00,51.8,33.7,29.85,NW,316,11.0,21.0,50,0.00,,,0.01,Wunderground v.1.15,2013-04-01 22:05:00,
2013-04-01 18:10:00,51.7,33.6,29.85,NW,313,10.0,10.0,50,0.00,,,0.01,Wunderground v.1.15,2013-04-01 22:10:00,
2013-04-01 18:20:00,51.5,33.5,29.86,NW,313,9.0,10.0,50,0.00,,,0.01,Wunderground v.1.15,2013-04-01 22:20:00,
2013-04-01 18:25:00,51.3,33.3,29.86,NNW,344,10.0,10.0,50,0.00,,,0.01,Wunderground v.1.15,2013-04-01 22:25:00,
2013-04-01 18:30:00,51.1,33.6,29.87,NNW,340,9.0,9.0,51,0.00,,,0.01,Wunderground v.1.15,2013-04-01 22:30:00,
2013-04-01 18:35:00,50.7,33.7,29.87,NNW,345,10.0,10.0,52,0.00,,,0.01,Wunderground v.1.15,2013-04-01 22:35:00,
2013-04-01 18:40:00,50.3,33.8,29.88,NW,309,11.0,11.0,53,0.00,,,0.01,Wunderground v.1.15,2013-04-01 22:40:00,
2013-04-01 18:50:00,49.4,33.9,29.88,NW,323,9.0,9.0,55,0.00,,,0.01,Wunderground v.1.15,2013-04-01 22:50:00,
2013-04-01 18:55:00,49.0,33.5,29.88,North,355,10.0,10.0,55,0.00,,,0.01,Wunderground v.1.15,2013-04-01 22:55:00,
2013-04-01 19:00:00,48.8,33.8,29.89,NW,317,9.0,13.0,56,0.00,,,0.01,Wunderground v.1.15,2013-04-01 23:00:00,
2013-04-01 19:05:00,48.7,33.2,29.88,NW,312,7.0,13.0,55,0.00,,,0.01,Wunderground v.1.15,2013-04-01 23:05:00,
2013-04-01 19:10:00,48.6,33.6,29.89,WNW,294,8.0,8.0,56,0.00,,,0.01,Wunderground v.1.15,2013-04-01 23:10:00,
2013-04-01 19:20:00,48.1,33.1,29.89,NW,311,8.0,18.0,56,0.00,,,0.01,Wunderground v.1.15,2013-04-01 23:20:00,
2013-04-01 19:25:00,47.8,32.9,29.90,WNW,291,7.0,18.0,56,0.00,,,0.01,Wunderground v.1.15,2013-04-01 23:25:00,
2013-04-01 19:30:00,47.6,32.2,29.90,NW,318,7.0,8.0,55,0.00,,,0.01,Wunderground v.1.15,2013-04-01 23:30:00,
2013-04-01 19:40:00,47.3,31.0,29.91,West,277,4.0,12.0,53,0.00,,,0.01,Wunderground v.1.15,2013-04-01 23:40:00,
2013-04-01 19:45:00,47.1,30.8,29.92,WNW,286,5.0,12.0,53,0.00,,,0.01,Wunderground v.1.15,2013-04-01 23:45:00,
2013-04-01 19:50:00,47.0,30.7,29.92,West,277,5.0,8.0,53,0.00,,,0.01,Wunderground v.1.15,2013-04-01 23:50:00,
2013-04-01 19:55:00,46.8,30.6,29.92,NW,322,3.0,12.0,53,0.00,,,0.01,Wunderground v.1.15,2013-04-01 23:55:00,
2013-04-01 20:00:00,46.7,30.0,29.93,West,264,4.0,4.0,52,0.00,,,0.01,Wunderground v.1.15,2013-04-02 00:00:00,
2013-04-01 20:10:00,46.5,29.8,29.93,NW,316,4.0,10.0,52,0.00,,,0.01,Wunderground v.1.15,2013-04-02 00:10:00,
2013-04-01 20:15:00,46.4,29.7,29.93,NW,314,4.0,10.0,52,0.00,,,0.01,Wunderground v.1.15,2013-04-02 00:15:00,
2013-04-01 20:20:00,46.2,29.5,29.93,NW,310,3.0,3.0,52,0.00,,,0.01,Wunderground v.1.15,2013-04-02 00:20:00,
2013-04-01 20:30:00,45.9,29.2,29.94,NW,326,3.0,8.0,52,0.00,,,0.01,Wunderground v.1.15,2013-04-02 00:30:00,
2013-04-01 20:35:00,45.8,28.7,29.94,NW,304,4.0,8.0,51,0.00,,,0.01,Wunderground v.1.15,2013-04-02 00:35:00,
2013-04-01 20:40:00,45.7,28.6,29.94,NW,317,5.0,5.0,51,0.00,,,0.01,Wunderground v.1.15,2013-04-02 00:40:00,
2013-04-01 20:50:00,45.4,29.3,29.95,WNW,297,4.0,4.0,53,0.00,,,0.01,Wunderground v.1.15,2013-04-02 00:50:00,
2013-04-01 20:55:00,45.2,29.1,29.95,WNW,294,4.0,8.0,53,0.00,,,0.01,Wunderground v.1.15,2013-04-02 00:55:00,
2013-04-01 21:00:00,45.0,28.9,29.95,NW,314,4.0,12.0,53,0.00,,,0.01,Wunderground v.1.15,2013-04-02 01:00:00,
2013-04-01 21:05:00,45.0,29.3,29.95,WNW,299,5.0,12.0,54,0.00,,,0.01,Wunderground v.1.15,2013-04-02 01:05:00,
2013-04-01 21:10:00,44.9,29.2,29.95,NW,315,6.0,6.0,54,0.00,,,0.01,Wunderground v.1.15,2013-04-02 01:10:00,
2013-04-01 21:20:00,44.6,29.4,29.96,NW,319,5.0,8.0,55,0.00,,,0.01,Wunderground v.1.15,2013-04-02 01:20:00,
2013-04-01 21:25:00,44.5,29.3,29.95,WNW,302,5.0,8.0,55,0.00,,,0.01,Wunderground v.1.15,2013-04-02 01:25:00,
2013-04-01 21:30:00,44.3,29.1,29.96,NW,309,4.0,4.0,55,0.00,,,0.01,Wunderground v.1.15,2013-04-02 01:30:00,
2013-04-01 21:35:00,44.2,29.5,29.96,NW,305,3.0,8.0,56,0.00,,,0.01,Wunderground v.1.15,2013-04-02 01:35:00,
2013-04-01 21:45:00,44.0,29.7,29.96,WNW,296,2.0,8.0,57,0.00,,,0.01,Wunderground v.1.15,2013-04-02 01:45:00,
2013-04-01 21:50:00,43.8,29.5,29.97,West,273,1.0,1.0,57,0.00,,,0.01,Wunderground v.1.15,2013-04-02 01:50:00,
2013-04-01 21:55:00,43.7,29.5,29.97,WNW,299,2.0,2.0,57,0.00,,,0.01,Wunderground v.1.15,2013-04-02 01:55:00,
2013-04-01 22:05:00,43.5,29.3,29.97,WNW,286,2.0,8.0,57,0.00,,,0.01,Wunderground v.1.15,2013-04-02 02:05:00,
2013-04-01 22:10:00,43.4,29.2,29.97,WNW,300,3.0,8.0,57,0.00,,,0.01,Wunderground v.1.15,2013-04-02 02:10:00,
2013-04-01 22:15:00,43.4,29.2,29.97,NNW,328,3.0,8.0,57,0.00,,,0.01,Wunderground v.1.15,2013-04-02 02:15:00,
2013-04-01 22:20:00,43.3,29.1,29.97,NW,310,4.0,4.0,57,0.00,,,0.01,Wunderground v.1.15,2013-04-02 02:20:00,
2013-04-01 22:30:00,43.2,29.0,29.98,West,276,3.0,3.0,57,0.00,,,0.01,Wunderground v.1.15,2013-04-02 02:30:00,
2013-04-01 22:40:00,43.0,28.8,29.98,West,275,3.0,3.0,57,0.00,,,0.01,Wunderground v.1.15,2013-04-02 02:40:00,
2013-04-01 22:45:00,42.9,28.7,29.98,WNW,294,3.0,8.0,57,0.00,,,0.01,Wunderground v.1.15,2013-04-02 02:45:00,
2013-04-01 22:50:00,42.8,28.6,29.98,WNW,302,2.0,8.0,57,0.00,,,0.01,Wunderground v.1.15,2013-04-02 02:50:00,
2013-04-01 22:55:00,42.6,28.8,29.98,WNW,295,2.0,8.0,58,0.00,,,0.01,Wunderground v.1.15,2013-04-02 02:55:00,
2013-04-01 23:00:00,42.4,28.7,29.98,WNW,295,1.0,1.0,58,0.00,,,0.01,Wunderground v.1.15,2013-04-02 03:00:00,
2013-04-01 23:10:00,42.1,28.4,29.99,West,268,1.0,1.0,58,0.00,,,0.01,Wunderground v.1.15,2013-04-02 03:10:00,
2013-04-01 23:15:00,42.0,27.9,29.99,NW,306,1.0,2.0,57,0.00,,,0.01,Wunderground v.1.15,2013-04-02 03:15:00,
2013-04-01 23:20:00,41.9,27.3,29.99,NW,310,2.0,8.0,56,0.00,,,0.01,Wunderground v.1.15,2013-04-02 03:20:00,
2013-04-01 23:25:00,41.9,26.9,30.00,NW,307,1.0,8.0,55,0.00,,,0.01,Wunderground v.1.15,2013-04-02 03:25:00,
2013-04-01 23:30:00,41.8,26.8,29.99,NW,307,2.0,8.0,55,0.00,,,0.01,Wunderground v.1.15,2013-04-02 03:30:00,
2013-04-01 23:40:00,41.7,25.8,30.00,WNW,295,3.0,3.0,53,0.00,,,0.01,Wunderground v.1.15,2013-04-02 03:40:00,
2013-04-01 23:45:00,41.7,25.4,30.00,NW,313,4.0,5.0,52,0.00,,,0.01,Wunderground v.1.15,2013-04-02 03:45:00,
2013-04-01 23:50:00,41.6,24.8,30.00,NW,311,3.0,8.0,51,0.00,,,0.01,Wunderground v.1.15,2013-04-02 03:50:00,
2013-04-01 23:55:00,41.6,24.8,30.00,NW,318,3.0,8.0,51,0.00,,,0.01,Wunderground v.1.15,2013-04-02 03:55:00,